Regional Weather Roundup
Issued by NWS

Home | Current Version | Previous Version | Text Only | Print | Product List | Glossary Off
Versions: 1 2 3 4 5 6 7 8 9 10 11 12 13 14 15 16 17 18 19 20 21 22 23 24 25 26 27 28 29 30 31 32 33 34 35 36 37 38 39 40 41 42 43 44 45 46 47 48 49 50

000
ASUS43 KIND 060209
RWRIN

WEATHER ROUNDUP FOR INDIANA
NATIONAL WEATHER SERVICE INDIANAPOLIS IN
1000 PM EDT TUE MAY 05 2015

NOTE: "FAIR" INDICATES FEW OR NO CLOUDS BELOW 12,000 FEET WITH NO
SIGNIFICANT WEATHER AND/OR OBSTRUCTIONS TO VISIBILITY.

* - STATION DOES NOT REPORT WEATHER SUCH AS PRECIPITATION OR FOG.

+ - STATION NOT QUALITY CONTROLLED BY THE NATIONAL WEATHER SERVICE.
    USE DATA WITH CAUTION...ESPECIALLY DEWPOINT AND RELATIVE
    HUMIDITY OBSERVATIONS.

INZ001>003-010>013-019-020-060300-
NORTHWEST INDIANA

CITY           SKY/WX    TMP DP  RH WIND       PRES   REMARKS
GARY /AIRPORT/ CLOUDY    50 N/A N/A N5        30.21  FOG
KNOX *+        CLOUDY    59  54  82 E10       30.18F
LA PORTE +     CLOUDY    59  59 100 E8        30.21S FOG
MICHIGAN CITY+ MOCLDY    55  55 100 CALM      30.21R FOG
MONTICELLO +   CLOUDY    66  66  99 E9        30.16R FOG
VALPARAISO     CLOUDY    60  58  92 NE7       30.19F FOG

$$

LMZ046-743>745-060300-
SOUTHERN LAKE MICHIGAN

STATION/POSITION TIME  TEMP    WIND        PRES    WAVE
                       AIR SEA DIR/SP/G            HT
                 (UTC) (F)     (DEG/KT/KT) (MB)    (FT)
BURNS HARBOR     0200   50     270/  6/  7 1023.4R
MICHIGAN CITY    0200   58      80/  3/  5   N/A
5NW MICH CITY    0200   52 50   70/  4/  6   N/A     1

$$

INZ004-005-014>016-021>024-060300-
NORTH CENTRAL INDIANA

CITY           SKY/WX    TMP DP  RH WIND       PRES   REMARKS
GOSHEN         CLOUDY    56  54  93 NE7       30.21S FOG
LOGANSPORT +   CLOUDY    68  61  77 NE6       30.18R
PERU/GRISSOM   CLOUDY    67  63  88 NE9       30.16R
ROCHESTER +    CLOUDY    64  64 100 NE6       30.20R FOG
SOUTH BEND     CLOUDY    56  52  86 E9        30.23R
WARSAW +       CLOUDY    59  57  94 E6        30.20S FOG

$$

INZ006>009-017-018-025>027-060300-
NORTHEAST INDIANA

CITY           SKY/WX    TMP DP  RH WIND       PRES   REMARKS
ANGOLA *+      CLOUDY    52  41  66 E8        30.23S
AUBURN +       CLOUDY    54  50  87 E9        30.24R FOG
FORT WAYNE     CLOUDY    57  54  89 NE14      30.22R FOG
HUNTINGTON +   CLOUDY    58  56  94 E8        30.20S FOG

$$

INZ028-029-035-036-043>045-051>053-060300-
WEST CENTRAL INDIANA

CITY           SKY/WX    TMP DP  RH WIND       PRES   REMARKS
CRAWFORDSVL +  MOCLDY    66  49  53 SE6       30.16R
GREENCASTLE +  MOCLDY    70  50  49 S5        30.17S
LAFAYETTE      CLOUDY    68  62  81 E5        30.15R
TERRE HAUTE    PTCLDY    71  55  56 S6        30.15R

$$

INZ030>032-037>040-046>048-054>057-064-065-060300-
CENTRAL INDIANA

CITY           SKY/WX    TMP DP  RH WIND       PRES   REMARKS
CP ATTERBURY + CLEAR     64  55  72 CALM      30.19R
COLUMBUS       CLEAR     66  50  55 S3          N/A
FRANKFORT +    CLOUDY    71  56  60 S5        30.18R
INDIANAPOLIS   MOCLDY    73  52  47 S9        30.15S
-EAGLE CREEK   MOCLDY    70  53  54 CALM      30.16R
KOKOMO *+      CLOUDY    70  61  73 NE14      30.17R
MARION +       CLOUDY    66  59  76 NE13      30.19R
MT COMFORT *+  PTCLDY    70  43  37 S3        30.18S
SHELBYVILLE    CLEAR     72  53  51 S8        30.17S
ZIONSVILLE +   MOCLDY    70  54  56 S5        30.18R

$$

INZ033-034-041-042-049-050-058-059-060300-
EAST CENTRAL INDIANA

CITY           SKY/WX    TMP DP  RH WIND       PRES   REMARKS
MUNCIE         CLEAR     73  54  51 S6        30.17S

$$

INZ060-061-067>069-081>083-085>088-060300-
SOUTHWEST INDIANA

CITY           SKY/WX    TMP DP  RH WIND       PRES   REMARKS
EVANSVILLE     CLEAR     73  53  49 CALM      30.17R
HUNTINGBURG *+ CLEAR     72  54  53 S3        30.18R
WASHINGTON +   CLEAR     66  50  55 S5        30.16R

$$

INZ062-063-066-070>080-084-089>092-060300-
SOUTH CENTRAL AND SOUTHEAST INDIANA

CITY           SKY/WX    TMP DP  RH WIND       PRES   REMARKS
BLOOMINGTON    PTCLDY    66  53  63 CALM      30.18R
MADISON *+     CLEAR     68  52  56 CALM      30.22R
NORTH VERNON + CLEAR     66  55  68 CALM      30.20R
SEYMOUR +      CLEAR     68  55  64 CALM      30.18R

$$




USA.gov is the U.S. government's official web portal to all federal, state and local government web resources and services.